Pubblicità

Relazioni, Coppia, Famiglia

le risposte dellesperto relazioni coppia famiglia

Titolo Data pubblicazione Visite
Dovrei stare con lui? (15796941885) 07 Febbraio 2020 250
Quando lei maltratta lui (1574831113125) 11 Dicembre 2019 333
Presa in giro (1574783413891) 11 Dicembre 2019 225
Sta con me ma ama ancora la sua ex? (1570428641955) 27 Novembre 2019 206
Problema cellulare (1572545674306) 20 Novembre 2019 168
senza via di uscita 2 (157236170832) 31 Ottobre 2019 240
Senza via di uscita (1571319488503) 21 Ottobre 2019 327
Indecisione e paura di essere felice (1569742705241) 01 Ottobre 2019 329
Non so più cosa voglio (156899247353) 24 Settembre 2019 340
Superare un tradimento (1567413219631) 09 Settembre 2019 337
Mia madre e il mio fidanzato (1567348985209) 05 Settembre 2019 297
Sofferenza per l'amante (1566977771624) 29 Agosto 2019 385
Rottura di un rapporto (1566312157147) 22 Agosto 2019 342
Marito assente (156491757332) 09 Agosto 2019 780
Carla (1564835062431) 09 Agosto 2019 300
Relazione a distanza (1564826207449) 07 Agosto 2019 271
Tira e Molla (1563459070789) 30 Luglio 2019 264
Bisogno di aiuto (1563283445736) 18 Luglio 2019 307
Perdita improvvisa di un genitore (1560971827129) 21 Giugno 2019 356
Il mio compagno (156087164017) 19 Giugno 2019 321
Coppia e Famiglia (156040281321) 14 Giugno 2019 359
Sto male ( 1559035915307) 29 Maggio 2019 345
Coppia e Famiglia (1558572212226) 29 Maggio 2019 376
Confusione e stress (1553303959980) 27 Marzo 2019 426
Sig.ra (1553099447199) 26 Marzo 2019 503
Relazione di coppia patologica (1549839723728) 19 Febbraio 2019 822
Complesso di inferiorità (1548926680437) 04 Febbraio 2019 763
Tradimento e sofferenza (1548683540898) 31 Gennaio 2019 763
Ansia perenne (1548091967786) 25 Gennaio 2019 434
Non so piu' che fare (1543328403961) 03 Dicembre 2018 520
Senso di colpa di per aver detto troppo (1540374819691) 16 Novembre 2018 453
Compagno con attacchi di rabbia (1541187657371) 12 Novembre 2018 497
Malumore in famiglia (1537254112650) 05 Ottobre 2018 547
Primo amore (1537874025567) 28 Settembre 2018 454
Il mio ragazzo mi ha allontanata (1534805529253) 18 Settembre 2018 707
Rapporto con la figlia (1535788300280) 17 Settembre 2018 447
Crisi per tradimento (1534711372798) 11 Settembre 2018 575
Il mio ragazzo ha un'amica sua ex (153424269298) 10 Settembre 2018 494
Rapporto con mia madre (1535104881951) 06 Settembre 2018 457
Un NON rapporto con mio fratello (153469284498) 29 Agosto 2018 1227
Amore Bordeline? (1533557790479) 10 Agosto 2018 696
Ragazzo fuori controllo (1533508901303) 09 Agosto 2018 543
Difficoltà familiari (1532957995162) 03 Agosto 2018 507
Paternalismo nella coppia (153131547452) 26 Luglio 2018 1068
Marito che pensa solo alla sua famiglia (1531074224846) 17 Luglio 2018 537
L'amore e la comunicazione (153081929712) 16 Luglio 2018 682
Infedeltà (1528369634858) 20 Giugno 2018 468
Una relazione finita... in clinica psichiatrica (1527834452910) 18 Giugno 2018 635
Signorina (1527419268970) 13 Giugno 2018 385
consulenza (1526474836350) 07 Giugno 2018 439
Carattere carissimo amico (1526471229152) 04 Giugno 2018 499
Superare il tradimento del marito (1527264851796) 31 Maggio 2018 601
Fine di un amore senza motivo (1526249055584) 22 Maggio 2018 625
Sorella cattiva (1525386993641) 17 Maggio 2018 1107
Crisi di nervi (1525262146654) 16 Maggio 2018 729
Litigi: dalle pulizie ad un bimbo (1524496959496) 10 Maggio 2018 479
La mia ragazza mi tratta sempre peggio (1525036636879) 09 Maggio 2018 503
Scatti d’ira del partner (1524331648729) 03 Maggio 2018 12403
Padre egoista (152386744999) 02 Maggio 2018 2037
Come posso far sì che ritorni? (1523626932948) 23 Aprile 2018 626
Marito confuso (1521708111477) 20 Aprile 2018 684
Che fare? (1520934157214) 19 Aprile 2018 523
Amore non corrisposto (1521653985892) 17 Aprile 2018 782
Ex mai dimenticato (1520597791398) 11 Aprile 2018 914
Odio mio marito (1522265546342) 04 Aprile 2018 3147
Comportamento evitante? (1522244675308) 03 Aprile 2018 580
Famiglia d'origine interferisce con famiglia scelta (1518999055256) 16 Marzo 2018 676
Il comportamento più giusto (1517572917528) 12 Marzo 2018 538
Comunicazione a seguito di scoperta dell'identità di 2 fratelli adottati presso 2 famiglie diverse. (1518280912103) 08 Marzo 2018 484
io lui lei (1517583418670) 07 Marzo 2018 613
problemi con i suoceri (1517899846528) 27 Febbraio 2018 640
Ansia da pause di riflessione (1517225957396) 25 Febbraio 2018 2448
Effetti della separazione consensuale (1516562874427) 08 Febbraio 2018 679
problemi con la famiglia di mio marito (1515419703464) 06 Febbraio 2018 613
matrimonio, figli, amante (1513721077853) 12 Gennaio 2018 842
Violenza fra parenti (1513435396434) 04 Gennaio 2018 609
La danza, da passione a ladra di tempo... (151118367456) 24 Novembre 2017 779
problema convivenza (1509968405415) 09 Novembre 2017 672
Non capisco perché (1506543024129) 06 Novembre 2017 701
Consiglio (1507015426144) 16 Ottobre 2017 631
Problemi di coppia (1506954898731) 10 Ottobre 2017 864
Paura di perdere mia madre (1506531733525) 05 Ottobre 2017 3496
Fallimento mio e del mio matrimonio (1506418376611) 03 Ottobre 2017 965
Differenze di età (1505990267666) 26 Settembre 2017 598
avvocato (1505948867148) 25 Settembre 2017 772
Crisi di coppia (1502010167642) 08 Agosto 2017 838
Problemi di coppia-disturbo personalità? (150106985788) 31 Luglio 2017 846
Sentimenti (1500386971181) 20 Luglio 2017 843
Ricominciare ( 1499694785111) 14 Luglio 2017 577
Problemi con la mia ragazza e con la gente in generale (1497643935797) 23 Giugno 2017 1051
Figli ribelli e dispettosi. Non ce la facciamo più (1496355260911) 14 Giugno 2017 803
Famiglia (1496776239383) 13 Giugno 2017 661
Gelosia (1496515513891) 08 Giugno 2017 632
nuova situazione familiare (1495808018546) 06 Giugno 2017 632
Paura e depressione (149599504218) 03 Giugno 2017 526
Come affrontare i genitori (14841274193) 30 Maggio 2017 626
Dormire assieme (1485335367735) 25 Maggio 2017 734
Minaccia di uccidersi ( 1485167053762) 17 Maggio 2017 530
Denisa (1494242983381) 10 Maggio 2017 628
Aiuto (148935473591) 23 Marzo 2017 847

Guarda anche...

Pubblicità

Pubblicità

I Sondaggi di Psiconline

Ritieni che la tua alimentazione possa influenzare il tuo umore?

Pubblicità

Le Risposte dell'Esperto

Fobie, paranoie (1579177546962…

Bibby, 40 anni Salve ho 40 anni 2 figli ho perso mia madre 10 anni fa e da allora si è acutizzato tutto paure fobie ansie ancora non ho accettato e provo fan...

Ansia e panico (1579815239457)

Mmonic, 17 anni   Vi contatto perché non so come fare, come reagire e come trovare una soluzione. Negli ultimi mesi ho il terrore di andare a scuola f...

Ho paura delle conseguenze di …

Orchidea55, 20 anni     Salve Dott.re/ssa, innanzitutto vorrei ringraziarvi  per il servizio che offrite.Sono una ragazza di 20 anni. Non ho...

Area Professionale

L’intervento psicologico clini…

Il periodo di emergenza e di pandemia che stiamo affrontando ha imposto una rivisitazione, da parte degli operatori, dei criteri di gestione dell'approccio clin...

E' esplosa la psicologia onlin…

In piena crisi mondiale da Coronavirus è improvvisamente esplosa la psicologia online. Su consiglio del CNOP e obbligati dalle circostanze, molti psicologi e ps...

Gli psicologi nell'emergenza. …

Monica Isabella Ventura, Presidente di Psicologi Emergenza Abruzzo (PEA), ripercorre in poche righe l'esperienza diretta degli psicologi abruzzesi di fronte all...

Le parole della Psicologia

Burnout

Il burnout è generalmente definito come una sindrome di esaurimento emotivo, di depersonalizzazione e derealizzazione personale, che può manifestarsi in tutte q...

Onicofagia

L'onicofagia, meglio conosciuta come il brutto vizio di mangiarsi le unghie, è un’impulso incontrollabile definito in ambito psicologico come disturbo del compo...

I ricordi flashbulb

Le flashbulb memories (FBM o ricordi flashbulb) sono state definite per la prima volta da Brown e Kulik nel 1977 come ricordi fotografici vividi, dettagliati e ...

News Letters